GW0064 Weather Reports


Display with metric or nautical units.
time (UTC)temp
F
wind
direction
speed
MPH
gust
MPH
rain 1hr
in
rain 24hr
in
rain mn
in
humidity
%
barometer
mb
20260905214001 85 44 9.0 17.0 0.03 0.03 0.03 65 1012.7
20260905213501 88 63 9.0 17.0 0.00 0.00 0.00 62 1012.4
20260905213001 89 337 4.0 10.0 0.00 0.00 0.00 65 1012.0
20260905212504 89 303 7.0 10.0 0.00 0.00 0.00 65 1011.8
20260905212002 88 275 6.0 11.0 0.00 0.00 0.00 66 1012.0
20260905211501 88 294 7.0 11.0 0.00 0.00 0.00 63 1012.3
20260905211001 88 321 6.0 8.0 0.00 0.00 0.00 65 1012.2
20260905210501 88 286 5.0 10.0 0.00 0.00 0.00 65 1012.1
20260905210005 89 290 5.0 10.0 0.00 0.00 0.00 67 1012.0
20260905205502 89 295 4.0 8.0 0.00 0.00 0.00 65 1012.0
20260905205001 89 270 6.0 8.0 0.00 0.00 0.00 65 1012.1
20260905204502 89 282 5.0 8.0 0.00 0.00 0.00 66 1012.2
20260905204002 89 328 1.0 9.0 0.00 0.00 0.00 66 1012.2
20260905203501 88 289 5.0 9.0 0.00 0.00 0.00 67 1012.3
20260905203001 88 283 6.0 8.0 0.00 0.00 0.00 65 1012.3
20260905202501 88 290 4.0 7.0 0.00 0.00 0.00 67 1012.4
20260905202001 88 294 5.0 7.0 0.00 0.00 0.00 67 1012.5
20260905201502 88 271 4.0 7.0 0.00 0.00 0.00 66 1012.6
20260905201003 89 296 4.0 6.0 0.00 0.00 0.00 65 1012.5
20260905200501 89 349 2.0 10.0 0.00 0.00 0.00 66 1012.6
20260905200003 89 290 2.0 10.0 0.00 0.00 0.00 65 1012.8
20260905195502 89 302 5.0 8.0 0.00 0.00 0.00 65 1012.8
20260905195004 88 344 4.0 9.0 0.00 0.00 0.00 67 1012.8
20260905194501 88 45 2.0 9.0 0.00 0.00 0.00 69 1012.7
20260905194001 87 286 6.0 9.0 0.00 0.00 0.00 67 1012.8
20260905193502 87 297 4.0 8.0 0.00 0.00 0.00 68 1013.0
20260905193001 88 281 5.0 8.0 0.00 0.00 0.00 66 1013.0
20260905192502 88 23 3.0 7.0 0.00 0.00 0.00 67 1013.1
20260905192002 88 302 3.0 6.0 0.00 0.00 0.00 65 1013.0
20260905191501 88 288 3.0 11.0 0.00 0.00 0.00 65 1013.0
20260905191002 88 281 7.0 11.0 0.00 0.00 0.00 65 1013.1
20260905190004 89 302 4.0 10.0 0.00 0.00 0.00 65 1013.2
20260905185002 89 280 7.0 11.0 0.00 0.00 0.00 63 1013.3
20260905184501 89 287 7.0 10.0 0.00 0.00 0.00 63 1013.4
20260905184001 88 251 4.0 12.0 0.00 0.00 0.00 62 1013.4
20260905183501 88 263 6.0 12.0 0.00 0.00 0.00 62 1013.5
20260905183002 88 272 5.0 11.0 0.00 0.00 0.00 63 1013.6
20260905182501 88 222 6.0 10.0 0.00 0.00 0.00 62 1013.5
20260905182002 87 268 6.0 12.0 0.00 0.00 0.00 62 1013.7
20260905180005 87 241 7.0 12.0 0.00 0.00 0.00 61 1013.8
20260905175502 87 220 8.0 10.0 0.00 0.00 0.00 61 1013.8
20260905175002 87 303 6.0 10.0 0.00 0.00 0.00 62 1013.8
20260905174502 86 232 6.0 10.0 0.00 0.00 0.00 63 1013.9
20260905174001 86 256 6.0 9.0 0.00 0.00 0.00 62 1013.9
20260905173501 86 167 3.0 10.0 0.00 0.00 0.00 64 1014.1
20260905173001 86 255 7.0 10.0 0.00 0.00 0.00 61 1014.2
20260905172503 85 238 6.0 8.0 0.00 0.00 0.00 64 1014.2
20260905172004 84 266 4.0 9.0 0.00 0.00 0.00 66 1014.3
20260905171501 84 293 5.0 10.0 0.00 0.00 0.00 65 1014.4
20260905171001 84 234 6.0 10.0 0.00 0.00 0.00 64 1014.5
20260905170501 83 193 5.0 9.0 0.00 0.00 0.00 65 1014.6
20260905170004 83 206 6.0 9.0 0.00 0.00 0.00 64 1014.7
20260905165501 83 162 5.0 9.0 0.00 0.00 0.00 64 1014.8
20260905165003 83 136 6.0 10.0 0.00 0.00 0.00 64 1014.8
20260905164501 83 210 6.0 10.0 0.00 0.00 0.00 65 1014.8
20260905164002 83 220 5.0 10.0 0.00 0.00 0.00 64 1014.9
20260905163501 83 229 5.0 10.0 0.00 0.00 0.00 65 1014.9
20260905163001 82 165 5.0 11.0 0.00 0.00 0.00 66 1014.9
20260905162501 82 185 6.0 11.0 0.00 0.00 0.00 67 1014.9
20260905162003 82 221 5.0 13.0 0.00 0.00 0.00 67 1014.9
20260905161502 82 204 6.0 13.0 0.00 0.00 0.00 66 1014.9
20260905161001 82 163 5.0 12.0 0.00 0.00 0.00 68 1014.9
20260905160501 82 256 7.0 12.0 0.00 0.00 0.00 67 1014.8
20260905160004 82 240 7.0 11.0 0.00 0.00 0.00 67 1014.8
20260905155503 82 236 5.0 11.0 0.00 0.00 0.00 67 1014.8
20260905155001 82 182 6.0 10.0 0.00 0.00 0.00 66 1014.7
20260905154501 82 196 5.0 12.0 0.00 0.00 0.00 67 1014.8
20260905154002 81 172 6.0 14.0 0.00 0.00 0.00 68 1014.6
20260905153501 81 184 7.0 14.0 0.00 0.00 0.00 69 1014.7
20260905152501 80 148 5.0 13.0 0.00 0.00 0.00 70 1014.7
20260905152003 79 241 6.0 10.0 0.00 0.00 0.00 69 1014.7
20260905151502 79 197 6.0 14.0 0.00 0.00 0.00 70 1014.8
20260905151001 79 238 8.0 14.0 0.00 0.00 0.00 70 1014.9
20260905150503 79 237 9.0 12.0 0.00 0.00 0.00 70 1014.9
20260905150004 79 133 6.0 13.0 0.00 0.00 0.00 71 1014.9
20260905145001 78 186 8.0 13.0 0.00 0.00 0.00 72 1014.7
20260905144501 78 166 7.0 11.0 0.00 0.00 0.00 73 1014.8
20260905144002 77 196 6.0 15.0 0.00 0.00 0.00 75 1014.8
20260905143502 77 216 8.0 15.0 0.00 0.00 0.00 75 1014.7
20260905143001 76 129 10.0 14.0 0.00 0.00 0.00 75 1014.7
20260905142501 76 168 5.0 14.0 0.00 0.00 0.00 75 1014.6
20260905142005 76 172 9.0 15.0 0.00 0.00 0.00 75 1014.7
20260905141505 76 137 10.0 15.0 0.00 0.00 0.00 76 1014.6
20260905141002 76 169 5.0 16.0 0.00 0.00 0.00 77 1014.6
20260905140004 75 162 8.0 14.0 0.00 0.00 0.00 77 1014.7
20260905135001 75 140 9.0 15.0 0.00 0.00 0.00 78 1014.7
20260905134500 75 160 5.0 12.0 0.00 0.00 0.00 79 1014.6
20260905134002 74 183 6.0 12.0 0.00 0.00 0.00 79 1014.6
20260905133502 74 162 8.0 14.0 0.00 0.00 0.00 79 1014.8
20260905133001 74 179 8.0 13.0 0.00 0.00 0.00 79 1014.8
20260905132501 74 191 5.0 11.0 0.00 0.00 0.00 81 1014.9
20260905132002 73 183 7.0 12.0 0.00 0.00 0.00 80 1015.0
20260905131503 73 129 6.0 12.0 0.00 0.00 0.00 81 1014.9
20260905131001 73 139 7.0 9.0 0.00 0.00 0.00 81 1014.9
20260905130502 73 160 5.0 12.0 0.00 0.00 0.00 82 1014.9
20260905130005 72 215 8.0 12.0 0.00 0.00 0.00 82 1015.0
20260905125501 72 169 7.0 10.0 0.00 0.00 0.00 83 1015.0
20260905125001 72 174 7.0 10.0 0.00 0.00 0.00 83 1015.1
20260905124500 72 136 2.0 10.0 0.00 0.00 0.00 84 1015.0
20260905124002 71 169 6.0 10.0 0.00 0.00 0.00 84 1014.9
20260905123501 71 150 3.0 7.0 0.00 0.00 0.00 85 1015.0
20260905123002 71 113 2.0 6.0 0.00 0.00 0.00 86 1014.9
20260905122501 71 153 3.0 6.0 0.00 0.00 0.00 85 1014.9
20260905122002 70 131 4.0 7.0 0.00 0.00 0.00 86 1015.0
20260905121501 70 112 4.0 7.0 0.00 0.00 0.00 86 1014.9
20260905121001 70 136 4.0 6.0 0.00 0.00 0.00 87 1014.7
20260905120501 70 135 3.0 8.0 0.00 0.00 0.00 87 1014.8
20260905115502 70 168 3.0 8.0 0.00 0.00 0.00 87 1014.6
20260905115001 70 130 4.0 10.0 0.00 0.00 0.00 87 1014.6
20260905114501 70 134 5.0 10.0 0.00 0.00 0.00 87 1014.7
20260905113502 70 134 6.0 10.0 0.00 0.00 0.00 86 1014.7
20260905113001 70 142 6.0 10.0 0.00 0.00 0.00 86 1014.8
20260905112501 70 147 6.0 10.0 0.00 0.00 0.00 86 1014.7
20260905112003 70 138 4.0 9.0 0.00 0.00 0.00 86 1014.7
20260905111512 70 138 5.0 9.0 0.00 0.00 0.00 86 1014.7
20260905111001 70 123 3.0 9.0 0.00 0.00 0.00 86 1014.7
20260905110501 70 144 4.0 8.0 0.00 0.00 0.00 86 1014.8
20260905110005 70 65 2.0 11.0 0.00 0.00 0.00 86 1014.8
20260905105001 70 151 6.0 11.0 0.00 0.00 0.00 86 1014.6
20260905104501 70 121 5.0 11.0 0.00 0.00 0.00 86 1014.8
20260905104001 71 137 3.0 9.0 0.00 0.00 0.00 85 1014.8
20260905103001 71 125 6.0 10.0 0.00 0.00 0.00 85 1014.7
20260905102502 71 128 5.0 9.0 0.00 0.00 0.00 85 1014.7
20260905102001 71 96 4.0 16.0 0.00 0.00 0.00 84 1014.8
20260905101502 72 64 4.0 16.0 0.00 0.00 0.00 83 1014.8
20260905101002 73 123 9.0 16.0 0.00 0.00 0.00 83 1014.8
20260905095502 75 153 0.0 1.0 0.00 0.00 0.00 90 1013.7
20260905095000 75 154 1.0 1.0 0.00 0.00 0.00 90 1013.7
20260905094500 75 155 0.0 1.0 0.00 0.00 0.00 90 1013.7
20260905094003 74 155 0.0 1.0 0.00 0.00 0.00 90 1013.7
20260905093500 74 219 0.0 0.0 0.00 0.00 0.00 90 1013.7
20260905093000 74 219 0.0 0.0 0.00 0.00 0.00 90 1013.8
20260905092000 75 219 0.0 0.0 0.00 0.00 0.00 89 1013.7
20260905091500 75 219 0.0 1.0 0.00 0.00 0.00 89 1013.7
20260905091002 75 219 0.0 1.0 0.00 0.00 0.00 89 1013.6
20260905090500 75 219 0.0 0.0 0.00 0.00 0.00 88 1013.5
20260905090003 76 219 0.0 1.0 0.00 0.00 0.00 88 1013.6
20260905085503 76 219 0.0 1.0 0.00 0.00 0.00 88 1013.5
20260905085001 76 219 0.0 1.0 0.00 0.00 0.00 88 1013.5
20260905084500 76 219 0.0 1.0 0.00 0.00 0.00 88 1013.5
20260905084001 76 198 0.0 0.0 0.00 0.00 0.00 88 1013.5
20260905083500 76 198 0.0 1.0 0.00 0.00 0.00 88 1013.7
20260905083001 76 198 0.0 1.0 0.00 0.00 0.00 88 1013.6
20260905082500 76 198 0.0 1.0 0.00 0.00 0.00 88 1013.5
20260905082000 76 198 0.0 1.0 0.00 0.00 0.00 88 1013.5
20260905081500 76 261 0.0 0.0 0.00 0.00 0.00 87 1013.5
20260905081001 77 261 0.0 1.0 0.00 0.00 0.00 87 1013.5
20260905080500 77 261 0.0 1.0 0.00 0.00 0.00 87 1013.4
20260905080003 77 261 0.0 1.0 0.00 0.00 0.00 87 1013.4
20260905075000 77 262 0.0 0.0 0.00 0.00 0.00 87 1013.4
20260905074500 77 262 0.0 1.0 0.00 0.00 0.00 87 1013.4
20260905074000 77 262 0.0 0.0 0.00 0.00 0.00 87 1013.3
20260905073000 78 262 1.0 2.0 0.00 0.00 0.00 85 1013.1
20260905072000 78 252 1.0 3.0 0.00 0.00 0.00 85 1013.1
20260905071500 78 259 1.0 2.0 0.00 0.00 0.00 85 1013.0
20260905071000 78 236 0.0 5.0 0.00 0.00 0.00 85 1012.9
20260905070501 78 226 2.0 5.0 0.00 0.00 0.00 86 1012.8
20260905070003 78 226 2.0 4.0 0.00 0.00 0.00 86 1012.5
20260905065501 77 206 2.0 4.0 0.00 0.00 0.00 86 1012.5
20260905065005 77 193 3.0 4.0 0.00 0.00 0.00 87 1012.5
20260905064000 77 203 2.0 4.0 0.00 0.00 0.00 87 1012.9
20260905063501 77 234 2.0 4.0 0.00 0.00 0.00 88 1012.9
20260905063001 77 195 2.0 4.0 0.00 0.00 0.00 88 1013.0
20260905062500 77 217 2.0 3.0 0.00 0.00 0.00 88 1013.2
20260905061500 77 219 1.0 2.0 0.00 0.00 0.00 89 1013.4
20260905061000 77 201 1.0 2.0 0.00 0.00 0.00 89 1013.4
20260905060004 77 165 1.0 2.0 0.00 0.00 0.00 89 1013.6
20260905055459 77 210 1.0 2.0 0.00 0.00 0.00 89 1013.7
20260905055001 77 160 1.0 2.0 0.00 0.00 0.00 89 1013.7
20260905054500 77 161 2.0 2.0 0.00 0.00 0.00 89 1013.6
20260905054001 78 165 2.0 4.0 0.00 0.00 0.00 89 1013.7
20260905053501 78 162 2.0 4.0 0.00 0.00 0.00 89 1013.7
20260905053002 78 172 2.0 4.0 0.00 0.00 0.00 89 1013.7
20260905052500 78 207 2.0 4.0 0.00 0.00 0.00 89 1013.8
20260905051503 78 167 2.0 3.0 0.00 0.00 0.00 89 1013.9
20260905051000 78 167 2.0 3.0 0.00 0.00 0.00 89 1013.9
20260905050500 78 188 2.0 3.0 0.00 0.00 0.00 88 1014.0
20260905050004 78 166 2.0 3.0 0.00 0.00 0.00 89 1014.0
20260905045505 78 221 1.0 3.0 0.00 0.00 0.00 89 1013.9
20260905045002 78 184 2.0 3.0 0.00 0.00 0.00 89 1013.9
20260905044503 78 199 2.0 3.0 0.00 0.00 0.00 89 1014.0
20260905044004 78 153 0.0 0.0 0.00 0.00 0.00 89 1014.0
20260905043504 78 158 0.0 0.0 0.00 0.00 0.00 88 1014.1
20260905043003 78 159 0.0 0.0 0.00 0.00 0.00 88 1014.1
20260905042502 78 158 0.0 0.0 0.00 0.00 0.00 88 1014.2
20260905041503 78 158 0.0 0.0 0.00 0.00 0.00 88 1014.3
20260905041002 79 158 0.0 0.0 0.00 0.00 0.00 87 1014.3
20260905040502 79 158 0.0 0.0 0.00 0.00 0.00 87 1014.3
20260905040007 79 158 0.0 0.0 0.00 0.00 0.00 86 1014.3
20260905035005 79 159 0.0 0.0 0.00 0.00 0.00 86 1014.2
20260905034502 80 159 0.0 0.0 0.00 0.00 0.00 86 1014.4
20260905034005 80 159 0.0 0.0 0.00 0.00 0.00 86 1014.3
20260905033504 80 161 0.0 0.0 0.00 0.00 0.00 86 1014.3
20260905033003 80 159 0.0 0.0 0.00 0.00 0.00 86 1014.4
20260905032503 80 166 0.0 0.0 0.00 0.00 0.00 86 1014.5
20260905032003 80 172 0.0 0.0 0.00 0.00 0.00 86 1014.5
20260905031504 80 182 0.0 1.0 0.00 0.00 0.00 86 1014.4
20260905031003 80 162 0.0 2.0 0.00 0.00 0.00 86 1014.4
20260905030503 80 161 1.0 2.0 0.00 0.00 0.00 85 1014.4
20260905030006 80 163 1.0 2.0 0.00 0.00 0.00 85 1014.3
20260905025003 81 184 0.0 1.0 0.00 0.00 0.00 84 1014.4
20260905024503 81 184 0.0 2.0 0.00 0.00 0.00 84 1014.4
20260905024003 81 184 1.0 3.0 0.00 0.00 0.00 84 1014.4
20260905023506 81 188 1.0 3.0 0.00 0.00 0.00 84 1014.3
20260905023004 81 162 2.0 4.0 0.00 0.00 0.00 84 1014.2
20260905022503 81 176 3.0 4.0 0.00 0.00 0.00 84 1014.2
20260905022003 81 165 2.0 4.0 0.00 0.00 0.00 84 1014.2
20260905021502 81 173 2.0 3.0 0.00 0.00 0.00 84 1014.2
20260905021004 82 191 2.0 3.0 0.00 0.00 0.00 83 1014.2
20260905020005 82 174 2.0 3.0 0.00 0.00 0.00 83 1014.2
20260905015503 82 169 2.0 3.0 0.00 0.00 0.00 83 1014.1
20260905015003 82 171 2.0 3.0 0.00 0.00 0.00 82 1014.2
20260905014502 82 158 2.0 3.0 0.00 0.00 0.00 82 1014.0
20260905014002 82 169 2.0 3.0 0.00 0.00 0.00 82 1014.0
20260905013502 83 164 2.0 4.0 0.00 0.00 0.00 82 1014.1
20260905013002 83 166 2.0 4.0 0.00 0.00 0.00 81 1014.0
20260905012503 83 143 2.0 4.0 0.00 0.00 0.00 81 1014.0
20260905012002 83 158 2.0 3.0 0.00 0.00 0.00 81 1013.9
20260905011501 83 152 2.0 4.0 0.00 0.00 0.00 81 1013.9
20260905011001 83 152 2.0 4.0 0.00 0.00 0.00 80 1013.9
20260905010504 83 173 3.0 5.0 0.00 0.00 0.00 80 1013.9
20260905005502 84 168 2.0 5.0 0.00 0.00 0.00 79 1013.8
20260905005003 84 146 4.0 5.0 0.00 0.00 0.00 79 1013.7
20260905004501 84 168 3.0 5.0 0.00 0.00 0.00 78 1013.8
20260905003501 84 129 1.0 3.0 0.00 0.00 0.00 77 1013.8
20260905003003 84 139 1.0 4.0 0.00 0.00 0.00 76 1013.8
20260905002501 85 146 2.0 4.0 0.00 0.00 0.00 76 1013.8
20260905001501 85 155 2.0 6.0 0.00 0.00 0.00 74 1013.8
20260905000502 86 132 3.0 6.0 0.00 0.00 0.00 73 1013.9
20260905000005 87 136 4.0 6.0 0.00 0.00 0.00 73 1013.9
20260904235502 87 136 3.0 6.0 0.00 0.00 0.00 73 1013.9
20260904234502 88 130 3.0 7.0 0.00 0.00 0.00 70 1013.8
20260904234002 89 132 3.0 7.0 0.00 0.00 0.00 69 1013.8
20260904233503 89 87 3.0 5.0 0.00 0.00 0.00 67 1013.8
20260904233002 89 144 2.0 4.0 0.00 0.00 0.00 67 1013.9
20260904232003 89 138 4.0 6.0 0.00 0.00 0.00 66 1013.8
20260904231501 90 138 3.0 6.0 0.00 0.00 0.00 66 1013.8
20260904230504 90 121 3.0 5.0 0.00 0.00 0.00 66 1013.8
20260904230004 91 138 2.0 5.0 0.00 0.00 0.00 66 1013.8
20260904225501 91 121 1.0 5.0 0.00 0.00 0.00 65 1013.8
20260904225003 92 145 2.0 4.0 0.00 0.00 0.00 64 1013.7
20260904224502 92 67 2.0 4.0 0.00 0.00 0.00 64 1013.7
20260904224001 92 141 2.0 4.0 0.00 0.00 0.00 62 1013.7
20260904223504 92 143 2.0 4.0 0.00 0.00 0.00 63 1013.6
20260904223002 92 37 2.0 5.0 0.00 0.00 0.00 63 1013.7
20260904222502 92 51 2.0 5.0 0.00 0.00 0.00 64 1013.7
20260904222002 92 124 2.0 4.0 0.00 0.00 0.00 63 1013.7
20260904221502 92 70 0.0 5.0 0.00 0.00 0.00 62 1013.6
20260904221001 92 58 2.0 5.0 0.00 0.00 0.00 61 1013.6
20260904220006 91 129 3.0 6.0 0.00 0.00 0.00 62 1013.6
20260904215503 91 137 4.0 6.0 0.00 0.00 0.00 62 1013.6
20260904215001 92 151 4.0 6.0 0.00 0.00 0.00 62 1013.6
20260904214504 91 152 3.0 5.0 0.00 0.00 0.00 62 1013.6